Flag for Germany Weather past 2 weeks in Freising, Bavaria, Germany

Now
87 °F

Partly sunny.


Feels Like: 85 °F
Forecast: 61 / 84 °F
Wind: 5 mph from West

Location: Muenchen Flughafen

Current Time: Aug 4, 2015 at 3:57:17 PM

Latest Report: Aug 4, 2015 at 3:00 PM


Visibility: 31 mi

Pressure: 29.87 "Hg

Humidity: 33%

Dew point: 54 °F

Location of FreisingLocation

Historic Weather in Freising — Graph

°F

Freising temperature yesterday

Maximum temperature yesterday: 82 °F (at 5:00 PM)
Minimum temperature yesterday: 49 °F (at 6:00 AM)
Average temperature yesterday: 67 °F

Past Weeks' High & Low Weather Summary

 TemperatureHumidityPressure
High93 °F (Jul 22, 4:00 PM)100% (Aug 3, 5:00 AM)30.13 "Hg (Aug 3, 5:00 AM)
Low45 °F (Jul 30, 5:00 AM)26% (Jul 22, 5:00 PM)29.68 "Hg (Jul 27, 3:00 PM)
Average68 °F63%29.92 "Hg
* Reported Jul 20 3:00 PM — Aug 4 3:00 PM, Freising, Weather by CustomWeather, © 2015

Note: Actual official high and low records may vary slightly from our data, if they occured in-between our weather recording intervals... More about our weather records

Advertising

Freising weather history for previous 24 hours

 ConditionsComfort  
Time TempWeatherWind HumidityBarometerVisibility
3:00 PM
Tue, Aug 4
87 °FPartly sunny.5 mph33%29.87 "Hg31 mi
2:00 PM87 °FPartly sunny.3 mph32%29.87 "Hg31 mi
1:00 PM84 °FPartly sunny.2 mph39%29.88 "Hg31 mi
12:00 PM82 °FPartly sunny.2 mph45%29.89 "Hg28 mi
11:00 AM79 °FScattered clouds.2 mph52%29.91 "Hg28 mi
10:00 AM74 °FScattered clouds.2 mph62%29.93 "Hg19 mi
9:00 AM70 °FPassing clouds.1 mph71%29.94 "Hg7 mi
8:00 AM64 °FPassing clouds.1 mph82%29.97 "Hg6 mi
7:00 AM54 °FFog.1 mph99%30.01 "Hg5 mi
6:00 AM52 °FFog.1 mph99%30.01 "Hg4 mi
5:00 AM54 °FFog.No wind100%30.01 "Hg5 mi
4:00 AM54 °FFog.No wind97%30.02 "Hg9 mi
3:00 AM56 °FClear.1 mph99%30.02 "Hg11 mi
2:00 AM57 °FClear.No wind95%30.03 "Hg25 mi
1:00 AM58 °FClear.1 mph91%30.03 "Hg31 mi
11:00 PM
Mon, Aug 3
62 °FClear.1 mph80%30.04 "Hg31 mi
10:00 PM70 °FClear.3 mph61%30.02 "Hg31 mi
9:00 PM74 °FClear.2 mph53%30.00 "Hg31 mi
8:00 PM78 °FSunny.3 mph45%29.98 "Hg34 mi
7:00 PM81 °FSunny.2 mph39%29.98 "Hg34 mi
6:00 PM82 °FPassing clouds.5 mph36%29.98 "Hg43 mi
5:00 PM82 °FPassing clouds.3 mph35%29.99 "Hg43 mi
4:00 PM82 °FPassing clouds.3 mph37%30.01 "Hg43 mi
3:00 PM81 °FPassing clouds.2 mph36%30.03 "Hg43 mi
Weather by CustomWeather, © 2015

See weather overviewHow to use our weather pages